SXAET LGSK-LGKM

Flight info

Callsign SXAET
Flight time 1h 8m
Altitude 4500
Route DCT IBIDI DCT AGISA/N0128F055 DCT 3958N02320E DCT 4001N02332E DCT 4006N02347E DCT 4024N02353E DCT PEREN DCT 4044N02406E DCT 4055N02415E
Aircraft DA40/L-SDFGRY/SB2

Departure

Time 2026-04-26 08:11
Airport Skiathos Island National Airport (LGSK)

Arrival

Time 2026-04-26 09:19
Airport Kavala Amygdaleon Lydia Airfield (LGKM)
Time Latitude Longitude Altitude Speed Heading
2026-04-26 08:03 39.17608 23.50184 34 ft 0 kts 281°
2026-04-26 08:06 39.17608 23.50183 34 ft 1 kts 279°
2026-04-26 08:06 39.17601 23.50165 34 ft 4 kts 181°
2026-04-26 08:07 39.17579 23.50200 34 ft 0 kts 140°
2026-04-26 08:08 39.17550 23.50242 32 ft 12 kts 125°
2026-04-26 08:08 39.17489 23.50271 30 ft 11 kts 199°
2026-04-26 08:09 39.17387 23.50225 27 ft 20 kts 201°
2026-04-26 08:09 39.17227 23.50153 16 ft 26 kts 199°
2026-04-26 08:09 39.17079 23.50067 12 ft 16 kts 205°
2026-04-26 08:09 39.17060 23.50077 12 ft 3 kts 32°
2026-04-26 08:10 39.17217 23.50146 16 ft 51 kts 19°
2026-04-26 08:10 39.17657 23.50343 143 ft 70 kts 20°
2026-04-26 08:10 39.18107 23.50561 360 ft 72 kts 20°
2026-04-26 08:10 39.18596 23.50771 548 ft 78 kts 15°
2026-04-26 08:11 39.19118 23.50897 776 ft 75 kts
2026-04-26 08:11 39.19662 23.50868 951 ft 80 kts 353°
2026-04-26 08:11 39.20217 23.50784 1141 ft 82 kts 353°
2026-04-26 08:11 39.20780 23.50718 1350 ft 83 kts 351°
2026-04-26 08:12 39.21350 23.50619 1587 ft 81 kts 351°
2026-04-26 08:12 39.21915 23.50540 1769 ft 84 kts 357°
2026-04-26 08:12 39.22496 23.50506 1982 ft 82 kts 356°
2026-04-26 08:12 39.23066 23.50470 2207 ft 82 kts 355°
2026-04-26 08:13 39.23659 23.50441 2399 ft 86 kts 357°
2026-04-26 08:13 39.24238 23.50424 2627 ft 84 kts 358°
2026-04-26 08:13 39.24844 23.50406 2794 ft 89 kts 357°
2026-04-26 08:13 39.25458 23.50373 3029 ft 87 kts 352°
2026-04-26 08:14 39.26079 23.50300 3199 ft 91 kts 356°
2026-04-26 08:14 39.26711 23.50284 3415 ft 91 kts 357°
2026-04-26 08:14 39.27333 23.50275 3618 ft 91 kts 357°
2026-04-26 08:14 39.27963 23.50276 3827 ft 91 kts
2026-04-26 08:15 39.28592 23.50305 4042 ft 90 kts 356°
2026-04-26 08:15 39.29219 23.50283 4268 ft 90 kts 356°
2026-04-26 08:15 39.29845 23.50268 4479 ft 91 kts 357°
2026-04-26 08:15 39.30534 23.50258 4499 ft 106 kts 358°
2026-04-26 08:16 39.31299 23.50259 4502 ft 112 kts 359°
2026-04-26 08:16 39.32094 23.50259 4503 ft 115 kts 359°
2026-04-26 08:16 39.32898 23.50255 4504 ft 116 kts 358°
2026-04-26 08:16 39.33708 23.50250 4506 ft 117 kts 358°
2026-04-26 08:17 39.34525 23.50244 4510 ft 117 kts 358°
2026-04-26 08:17 39.35343 23.50238 4511 ft 118 kts 358°
2026-04-26 08:17 39.36110 23.50231 4768 ft 101 kts 357°
2026-04-26 08:17 39.36748 23.50217 5067 ft 89 kts 356°
2026-04-26 08:18 39.37376 23.50206 5265 ft 91 kts 357°
2026-04-26 08:18 39.38006 23.50199 5489 ft 91 kts 357°
2026-04-26 08:18 39.38642 23.50194 5701 ft 91 kts 357°
2026-04-26 08:18 39.39281 23.50189 5912 ft 92 kts 357°
2026-04-26 08:19 39.39921 23.50185 6130 ft 92 kts 357°
2026-04-26 08:19 39.40563 23.50181 6347 ft 92 kts 358°
2026-04-26 08:19 39.41208 23.50187 6536 ft 95 kts 359°
2026-04-26 08:19 39.41917 23.50090 6542 ft 108 kts 340°
2026-04-26 08:20 39.42636 23.49741 6546 ft 113 kts 339°
2026-04-26 08:20 39.43386 23.49379 6548 ft 116 kts 339°
2026-04-26 08:20 39.44150 23.49010 6552 ft 118 kts 339°
2026-04-26 08:20 39.44926 23.48634 6552 ft 119 kts 339°
2026-04-26 08:21 39.45703 23.48258 6549 ft 120 kts 339°
2026-04-26 08:21 39.46483 23.47880 6549 ft 120 kts 339°
2026-04-26 08:21 39.47265 23.47502 6549 ft 120 kts 339°
2026-04-26 08:21 39.48047 23.47123 6550 ft 120 kts 340°
2026-04-26 08:22 39.48819 23.46749 6549 ft 120 kts 339°
2026-04-26 08:22 39.49603 23.46369 6549 ft 120 kts 340°
2026-04-26 08:22 39.50386 23.45990 6550 ft 120 kts 340°
2026-04-26 08:22 39.51169 23.45610 6550 ft 120 kts 339°
2026-04-26 08:23 39.51953 23.45231 6549 ft 120 kts 340°
2026-04-26 08:23 39.52736 23.44851 6550 ft 120 kts 340°
2026-04-26 08:23 39.53518 23.44472 6549 ft 120 kts 340°
2026-04-26 08:23 39.54301 23.44092 6549 ft 120 kts 340°
2026-04-26 08:24 39.55083 23.43712 6547 ft 120 kts 340°
2026-04-26 08:24 39.55863 23.43334 6547 ft 119 kts 340°
2026-04-26 08:24 39.56640 23.42957 6547 ft 119 kts 340°
2026-04-26 08:24 39.57418 23.42580 6547 ft 119 kts 340°
2026-04-26 08:25 39.58195 23.42202 6544 ft 119 kts 340°
2026-04-26 08:25 39.58711 23.41952 6544 ft 119 kts 340°
2026-04-26 08:25 39.59744 23.41450 6544 ft 119 kts 340°
2026-04-26 08:25 39.60521 23.41072 6544 ft 119 kts 340°
2026-04-26 08:26 39.61297 23.40695 6544 ft 119 kts 340°
2026-04-26 08:26 39.62074 23.40317 6544 ft 119 kts 340°
2026-04-26 08:26 39.62851 23.39939 6544 ft 119 kts 340°
2026-04-26 08:26 39.63377 23.39684 6544 ft 119 kts 340°
2026-04-26 08:27 39.64405 23.39183 6544 ft 119 kts 340°
2026-04-26 08:27 39.64930 23.38928 6544 ft 119 kts 340°
2026-04-26 08:27 39.65708 23.38549 6545 ft 119 kts 340°
2026-04-26 08:27 39.66474 23.38176 6544 ft 119 kts 340°
2026-04-26 08:28 39.67261 23.37793 6544 ft 119 kts 340°
2026-04-26 08:28 39.68036 23.37416 6544 ft 119 kts 340°
2026-04-26 08:28 39.68813 23.37037 6544 ft 119 kts 340°
2026-04-26 08:28 39.69580 23.36664 6544 ft 119 kts 340°
2026-04-26 08:29 39.70355 23.36286 6547 ft 119 kts 340°
2026-04-26 08:29 39.71129 23.35908 6546 ft 119 kts 340°
2026-04-26 08:29 39.71903 23.35530 6546 ft 119 kts 340°
2026-04-26 08:29 39.72676 23.35154 6546 ft 119 kts 341°
2026-04-26 08:30 39.73492 23.35006 6543 ft 119 kts 356°
2026-04-26 08:30 39.74318 23.34931 6544 ft 119 kts 356°
2026-04-26 08:30 39.75146 23.34859 6543 ft 119 kts 356°
2026-04-26 08:30 39.75967 23.34789 6543 ft 118 kts 356°
2026-04-26 08:31 39.76791 23.34720 6543 ft 118 kts 356°
2026-04-26 08:31 39.77614 23.34649 6544 ft 119 kts 355°
2026-04-26 08:31 39.78427 23.34603 6544 ft 118 kts 356°
2026-04-26 08:31 39.79252 23.34561 6544 ft 118 kts 356°
2026-04-26 08:32 39.80076 23.34516 6544 ft 118 kts 356°
2026-04-26 08:32 39.80898 23.34472 6544 ft 118 kts 356°
2026-04-26 08:32 39.81721 23.34435 6544 ft 118 kts 357°
2026-04-26 08:32 39.82545 23.34411 6544 ft 119 kts 357°
2026-04-26 08:33 39.83370 23.34386 6544 ft 118 kts 357°
2026-04-26 08:33 39.84194 23.34362 6543 ft 118 kts 357°
2026-04-26 08:33 39.85016 23.34337 6544 ft 118 kts 357°
2026-04-26 08:33 39.85828 23.34312 6544 ft 118 kts 357°
2026-04-26 08:34 39.86653 23.34286 6541 ft 118 kts 357°
2026-04-26 08:34 39.87476 23.34262 6541 ft 118 kts 357°
2026-04-26 08:34 39.88311 23.34238 6542 ft 118 kts 357°
2026-04-26 08:34 39.89125 23.34217 6538 ft 119 kts 357°
2026-04-26 08:35 39.89963 23.34196 6450 ft 123 kts 357°
2026-04-26 08:35 39.90820 23.34168 6323 ft 123 kts 356°
2026-04-26 08:35 39.91681 23.34105 6196 ft 124 kts 355°
2026-04-26 08:35 39.92542 23.34033 6068 ft 124 kts 355°
2026-04-26 08:36 39.93402 23.33960 5942 ft 124 kts 355°
2026-04-26 08:36 39.94264 23.33889 5818 ft 124 kts 355°
2026-04-26 08:36 39.95122 23.33818 5688 ft 124 kts 355°
2026-04-26 08:36 39.95980 23.33781 5561 ft 124 kts
2026-04-26 08:37 39.96678 23.34369 5550 ft 122 kts 52°
2026-04-26 08:37 39.97005 23.35397 5551 ft 124 kts 66°
2026-04-26 08:37 39.97288 23.36466 5554 ft 125 kts 67°
2026-04-26 08:37 39.97559 23.37554 5552 ft 128 kts 69°
2026-04-26 08:38 39.97832 23.38674 5553 ft 131 kts 68°
2026-04-26 08:38 39.98108 23.39802 5548 ft 129 kts 69°
2026-04-26 08:38 39.98383 23.40917 5551 ft 130 kts 68°
2026-04-26 08:38 39.98656 23.42030 5550 ft 131 kts 68°
2026-04-26 08:39 39.98923 23.43155 5546 ft 129 kts 68°
2026-04-26 08:39 39.99185 23.44262 5551 ft 128 kts 68°
2026-04-26 08:39 39.99451 23.45383 5551 ft 130 kts 68°
2026-04-26 08:39 39.99727 23.46510 5544 ft 130 kts 67°
2026-04-26 08:40 40.00005 23.47618 5539 ft 128 kts 67°
2026-04-26 08:40 40.00288 23.48735 5536 ft 130 kts 67°
2026-04-26 08:40 40.00562 23.49858 5546 ft 131 kts 68°
2026-04-26 08:40 40.00850 23.50998 5544 ft 133 kts 67°
2026-04-26 08:41 40.01152 23.52132 5542 ft 132 kts 63°
2026-04-26 08:41 40.01534 23.53230 5549 ft 133 kts 60°
2026-04-26 08:41 40.01922 23.54315 5540 ft 131 kts 60°
2026-04-26 08:41 40.02285 23.55378 5540 ft 129 kts 63°
2026-04-26 08:42 40.02615 23.56466 5543 ft 129 kts 64°
2026-04-26 08:42 40.02935 23.57552 5541 ft 128 kts 64°
2026-04-26 08:42 40.03253 23.58638 5541 ft 128 kts 64°
2026-04-26 08:42 40.03569 23.59722 5541 ft 128 kts 64°
2026-04-26 08:43 40.03877 23.60808 5542 ft 128 kts 66°
2026-04-26 08:43 40.04167 23.61908 5540 ft 128 kts 66°
2026-04-26 08:43 40.04456 23.63009 5537 ft 128 kts 66°
2026-04-26 08:43 40.04745 23.64107 5538 ft 128 kts 66°
2026-04-26 08:44 40.05034 23.65206 5537 ft 128 kts 66°
2026-04-26 08:44 40.05322 23.66299 5537 ft 128 kts 66°
2026-04-26 08:44 40.05611 23.67396 5537 ft 128 kts 66°
2026-04-26 08:44 40.05897 23.68485 5536 ft 124 kts 66°
2026-04-26 08:45 40.06164 23.69514 5534 ft 121 kts 66°
2026-04-26 08:45 40.06439 23.70565 5533 ft 124 kts 66°
2026-04-26 08:45 40.06719 23.71634 5535 ft 125 kts 66°
2026-04-26 08:45 40.07002 23.72714 5534 ft 126 kts 66°
2026-04-26 08:46 40.07287 23.73803 5532 ft 127 kts 66°
2026-04-26 08:46 40.07574 23.74893 5532 ft 127 kts 66°
2026-04-26 08:46 40.07865 23.75979 5539 ft 127 kts 66°
2026-04-26 08:46 40.08158 23.77068 5540 ft 127 kts 66°
2026-04-26 08:47 40.08453 23.78157 5540 ft 127 kts 66°
2026-04-26 08:47 40.09007 23.78980 5531 ft 120 kts 22°
2026-04-26 08:47 40.09810 23.79259 5530 ft 119 kts
2026-04-26 08:47 40.10619 23.79502 5540 ft 120 kts
2026-04-26 08:48 40.11455 23.79734 5540 ft 123 kts
2026-04-26 08:48 40.12304 23.79976 5544 ft 125 kts
2026-04-26 08:48 40.13157 23.80202 5527 ft 124 kts
2026-04-26 08:48 40.13998 23.80437 5526 ft 122 kts
2026-04-26 08:49 40.14833 23.80661 5538 ft 124 kts
2026-04-26 08:49 40.15668 23.80882 5532 ft 124 kts
2026-04-26 08:49 40.16513 23.81120 5536 ft 122 kts
2026-04-26 08:49 40.17331 23.81349 5535 ft 122 kts
2026-04-26 08:50 40.18157 23.81584 5537 ft 122 kts
2026-04-26 08:50 40.19009 23.81810 5532 ft 126 kts
2026-04-26 08:50 40.19856 23.82039 5530 ft 123 kts
2026-04-26 08:50 40.20688 23.82274 5529 ft 121 kts
2026-04-26 08:51 40.22327 23.82740 5529 ft 120 kts
2026-04-26 08:51 40.23143 23.82973 5529 ft 120 kts
2026-04-26 08:51 40.23957 23.83206 5528 ft 119 kts
2026-04-26 08:52 40.24766 23.83437 5530 ft 119 kts
2026-04-26 08:52 40.25579 23.83669 5530 ft 119 kts
2026-04-26 08:52 40.26378 23.83898 5530 ft 119 kts
2026-04-26 08:52 40.27188 23.84130 5530 ft 119 kts
2026-04-26 08:53 40.27998 23.84362 5528 ft 119 kts
2026-04-26 08:53 40.28809 23.84594 5528 ft 119 kts
2026-04-26 08:53 40.29618 23.84826 5528 ft 119 kts
2026-04-26 08:53 40.30428 23.85058 5528 ft 119 kts
2026-04-26 08:54 40.31238 23.85290 5528 ft 119 kts
2026-04-26 08:54 40.32050 23.85523 5529 ft 119 kts
2026-04-26 08:54 40.32862 23.85757 5526 ft 119 kts
2026-04-26 08:54 40.33672 23.85991 5526 ft 119 kts
2026-04-26 08:55 40.34482 23.86225 5526 ft 119 kts
2026-04-26 08:55 40.35292 23.86458 5526 ft 119 kts
2026-04-26 08:55 40.36103 23.86691 5526 ft 119 kts
2026-04-26 08:55 40.36903 23.86921 5525 ft 119 kts
2026-04-26 08:56 40.37721 23.87159 5528 ft 122 kts
2026-04-26 08:56 40.38553 23.87397 5532 ft 122 kts
2026-04-26 08:56 40.39383 23.87641 5531 ft 123 kts
2026-04-26 08:56 40.40210 23.87935 5528 ft 124 kts 14°
2026-04-26 08:57 40.41017 23.88308 5527 ft 122 kts 15°
2026-04-26 08:57 40.41817 23.88683 5526 ft 121 kts 15°
2026-04-26 08:57 40.42611 23.89054 5526 ft 121 kts 15°
2026-04-26 08:57 40.43402 23.89426 5526 ft 121 kts 15°
2026-04-26 08:58 40.44194 23.89799 5526 ft 121 kts 15°
2026-04-26 08:58 40.44984 23.90172 5526 ft 121 kts 15°
2026-04-26 08:58 40.45773 23.90545 5526 ft 121 kts 15°
2026-04-26 08:58 40.46562 23.90918 5530 ft 121 kts 15°
2026-04-26 08:59 40.47342 23.91289 5530 ft 121 kts 15°
2026-04-26 08:59 40.48137 23.91674 5530 ft 122 kts 15°
2026-04-26 08:59 40.48933 23.92060 5530 ft 122 kts 15°
2026-04-26 08:59 40.49729 23.92447 5530 ft 122 kts 15°
2026-04-26 09:00 40.50525 23.92835 5530 ft 122 kts 15°
2026-04-26 09:00 40.51321 23.93223 5530 ft 122 kts 15°
2026-04-26 09:00 40.52117 23.93611 5530 ft 122 kts 15°
2026-04-26 09:00 40.52914 23.93999 5530 ft 122 kts 15°
2026-04-26 09:01 40.53710 23.94387 5530 ft 122 kts 15°
2026-04-26 09:01 40.54507 23.94774 5531 ft 122 kts 15°
2026-04-26 09:01 40.55306 23.95162 5531 ft 122 kts 15°
2026-04-26 09:01 40.56102 23.95549 5531 ft 122 kts 15°
2026-04-26 09:02 40.56900 23.95937 5530 ft 122 kts 15°
2026-04-26 09:02 40.57698 23.96325 5530 ft 122 kts 15°
2026-04-26 09:02 40.58494 23.96712 5531 ft 122 kts 15°
2026-04-26 09:02 40.59291 23.97099 5531 ft 122 kts 15°
2026-04-26 09:03 40.60087 23.97496 5527 ft 123 kts 20°
2026-04-26 09:03 40.60816 23.98108 5529 ft 125 kts 29°
2026-04-26 09:03 40.61533 23.98752 5529 ft 125 kts 29°
2026-04-26 09:03 40.62248 23.99398 5526 ft 125 kts 29°
2026-04-26 09:04 40.62972 24.00052 5437 ft 128 kts 30°
2026-04-26 09:04 40.63708 24.00715 5311 ft 128 kts 30°
2026-04-26 09:04 40.64437 24.01377 5190 ft 129 kts 31°
2026-04-26 09:04 40.65161 24.02072 5070 ft 129 kts 32°
2026-04-26 09:05 40.65884 24.02783 4946 ft 130 kts 33°
2026-04-26 09:05 40.66588 24.03521 4827 ft 129 kts 35°
2026-04-26 09:05 40.67278 24.04281 4694 ft 129 kts 36°
2026-04-26 09:05 40.67966 24.05041 4568 ft 129 kts 36°
2026-04-26 09:06 40.68655 24.05800 4440 ft 129 kts 36°
2026-04-26 09:06 40.69345 24.06558 4311 ft 129 kts 36°
2026-04-26 09:06 40.70041 24.07318 4192 ft 130 kts 36°
2026-04-26 09:06 40.70741 24.08074 4068 ft 130 kts 36°
2026-04-26 09:07 40.71445 24.08833 3940 ft 130 kts 36°
2026-04-26 09:07 40.72148 24.09588 3815 ft 130 kts 35°
2026-04-26 09:07 40.72905 24.10232 3699 ft 131 kts 27°
2026-04-26 09:07 40.73709 24.10859 3547 ft 135 kts 26°
2026-04-26 09:08 40.74492 24.11485 3504 ft 129 kts 27°
2026-04-26 09:08 40.75256 24.12079 3497 ft 126 kts 26°
2026-04-26 09:08 40.76035 24.12653 3506 ft 130 kts 26°
2026-04-26 09:08 40.76825 24.13246 3500 ft 130 kts 25°
2026-04-26 09:09 40.77591 24.13856 3483 ft 127 kts 27°
2026-04-26 09:09 40.78342 24.14463 3511 ft 128 kts 28°
2026-04-26 09:09 40.79111 24.15063 3507 ft 131 kts 25°
2026-04-26 09:09 40.79899 24.15680 3500 ft 133 kts 27°
2026-04-26 09:10 40.80706 24.16296 3505 ft 137 kts 29°
2026-04-26 09:10 40.81518 24.16945 3496 ft 134 kts 26°
2026-04-26 09:10 40.82321 24.17517 3491 ft 128 kts 26°
2026-04-26 09:10 40.83090 24.18062 3491 ft 126 kts 26°
2026-04-26 09:11 40.83854 24.18611 3501 ft 125 kts 26°
2026-04-26 09:11 40.84614 24.19168 3495 ft 124 kts 26°
2026-04-26 09:11 40.85373 24.19714 3494 ft 124 kts 26°
2026-04-26 09:11 40.86101 24.20317 3473 ft 122 kts 31°
2026-04-26 09:12 40.86820 24.20936 3308 ft 123 kts 31°
2026-04-26 09:12 40.87543 24.21542 3130 ft 121 kts 30°
2026-04-26 09:12 40.88227 24.22156 2946 ft 117 kts 36°
2026-04-26 09:12 40.88845 24.22769 2739 ft 108 kts 33°
2026-04-26 09:13 40.89412 24.23350 2564 ft 102 kts 34°
2026-04-26 09:13 40.89996 24.23937 2412 ft 109 kts 33°
2026-04-26 09:13 40.90525 24.24697 2228 ft 115 kts 53°
2026-04-26 09:13 40.91018 24.25508 2073 ft 117 kts 45°
2026-04-26 09:14 40.91564 24.26295 1948 ft 114 kts 46°
2026-04-26 09:14 40.91919 24.26800 1868 ft 109 kts 45°
2026-04-26 09:14 40.92433 24.27534 1735 ft 108 kts 46°
2026-04-26 09:14 40.92949 24.28265 1606 ft 111 kts 47°
2026-04-26 09:15 40.93473 24.28994 1475 ft 107 kts 45°
2026-04-26 09:15 40.93980 24.29691 1357 ft 104 kts 45°
2026-04-26 09:15 40.94479 24.30373 1230 ft 101 kts 46°
2026-04-26 09:15 40.94959 24.31022 1197 ft 97 kts 45°
2026-04-26 09:16 40.95546 24.31400 1208 ft 93 kts
2026-04-26 09:16 40.96123 24.31123 1188 ft 87 kts 316°
2026-04-26 09:16 40.96553 24.30582 1186 ft 84 kts 314°
2026-04-26 09:16 40.96972 24.30054 1185 ft 83 kts 314°
2026-04-26 09:17 40.97387 24.29532 1184 ft 82 kts 314°
2026-04-26 09:17 40.97845 24.29100 1181 ft 83 kts 338°
2026-04-26 09:17 40.98423 24.29190 1112 ft 90 kts 36°
2026-04-26 09:17 40.98867 24.29786 1008 ft 89 kts 46°
2026-04-26 09:18 40.99249 24.30377 875 ft 80 kts 53°
2026-04-26 09:18 40.99468 24.31035 787 ft 77 kts 84°
2026-04-26 09:18 40.99306 24.31713 655 ft 80 kts 129°
2026-04-26 09:18 40.98908 24.32220 534 ft 79 kts 140°
2026-04-26 09:19 40.98506 24.32702 421 ft 75 kts 140°
2026-04-26 09:19 40.98122 24.33167 323 ft 75 kts 138°
2026-04-26 09:19 40.97743 24.33616 226 ft 72 kts 140°
2026-04-26 09:19 40.97440 24.33971 205 ft 46 kts 137°
2026-04-26 09:20 40.97242 24.34210 203 ft 33 kts 137°
2026-04-26 09:20 40.97200 24.34326 212 ft 8 kts 44°
2026-04-26 09:20 40.97240 24.34392 203 ft 8 kts 75°
2026-04-26 09:20 40.97222 24.34432 208 ft 9 kts 140°
2026-04-26 09:21 40.97133 24.34528 203 ft 21 kts 140°
2026-04-26 09:21 40.97058 24.34616 204 ft 6 kts 115°
2026-04-26 09:21 40.97077 24.34660 205 ft 10 kts 49°
2026-04-26 09:21 40.97102 24.34680 208 ft 2 kts 316°
2026-04-26 09:22 40.97105 24.34677 208 ft 0 kts 319°